Location: Tumbler Ridge
(55.1167°N, 121.0000°W)
Time: 04:44:27
(UTC-07:00)

Daily predictions for brighter satellites

Satellite Brightness Start Highest point End
(mag) Time Altitude Azimuth Time Altitude Azimuth Time Altitude Azimuth
SL-27 R/B 2.6 00:02:17 11° SSW 00:05:25 69° WNW 00:08:47 10° NNE
Genesis I 3.6 00:05:41 10° NW 00:09:42 63° NE 00:13:38 10° ESE
Cosmos 2369 3.8 00:04:17 10° NNW 00:09:58 78° NE 00:14:57 14° SE
Cosmos 1408 Rocket 4.4 00:07:27 18° SSE 00:10:20 40° E 00:14:32 10° NNE
ATLAS CENTAUR R/B 4.2 00:06:28 10° WNW 00:10:47 27° N 00:14:58 10° NE
Cosmos 1417 Rocket 4.5 00:04:58 10° N 00:11:10 84° E 00:15:59 17° SSE
Cosmos 1953 4.4 00:11:45 10° NW 00:14:37 19° W 00:17:28 10° SW
Cosmos 1818 3.6 00:10:36 10° NW 00:16:05 72° SW 00:20:33 16° SSE
Cosmos 1553 Rocket 4.2 00:10:07 10° N 00:16:27 74° ENE 00:21:34 17° SSE
ATLAS 3B R/B 3.1 00:12:37 10° SW 00:20:19 81° NW 00:27:42 10° NE
Cosmos 1340 2.6 00:17:53 19° SSW 00:20:32 89° ESE 00:24:22 10° NNE
Cosmos 374 Rocket 4.5 00:17:03 10° SW 00:21:46 62° SE 00:25:36 10° NE
Meteor 1-16 Rocket 4.3 00:16:20 10° NNW 00:21:52 71° W 00:26:11 18° S
Cosmos 614 Rocket 4.0 00:18:18 15° SSW 00:22:38 75° ESE 00:27:53 10° NNE
Helios 1A Rocket 4.0 00:19:41 10° NNE 00:23:22 32° E 00:25:40 18° SSE
Lacrosse 5 rocket 1.7 00:19:32 10° WNW 00:23:40 70° N 00:28:03 10° E
NOSS 3-2 (A) 4.3 00:22:02 17° S 00:26:04 35° ESE 00:32:06 10° ENE
Cosmos 405 Rocket 3.8 00:24:02 19° SE 00:26:07 32° E 00:29:32 10° NNE
CZ-4B R/B 1.6 00:25:01 22° S 00:27:16 78° WSW 00:31:01 10° NNW
Cosmos 1763 Rocket 3.7 00:24:51 10° NNW 00:30:13 73° ENE 00:34:41 15° SE
Cosmos 2278 3.7 00:27:05 10° NW 00:32:45 72° WSW 00:37:03 18° SSE
Cosmos 1980 Rocket 3.3 00:27:29 10° NNW 00:32:50 42° NE 00:38:10 10° ESE
Cosmos 1092 Rocket 4.4 00:26:59 12° SSW 00:32:56 64° WNW 00:39:12 10° N
CZ-4C R/B 3.5 00:31:55 22° SSW 00:33:38 42° W 00:36:45 10° NNW
COSMOS 2406 3.3 00:33:55 10° SW 00:39:39 80° NW 00:45:27 10° NNE
Cosmos 1437 Rocket 4.3 00:37:31 10° N 00:41:03 30° ENE 00:44:24 11° SE
S3M 4.0 00:37:02 10° NNW 00:43:20 78° W 00:48:02 18° S
Terra 4.3 00:43:43 10° W 00:45:12 11° W 00:46:41 10° WNW
Lacrosse 5 1.8 00:41:29 10° WNW 00:46:33 75° SSW 00:51:36 10° ESE
COSMOS 2455 4.5 00:43:00 10° W 00:48:33 37° NNW 00:54:07 10° NE
Cosmos 1707 3.2 00:45:54 17° SSW 00:48:48 56° WNW 00:52:41 10° N
H-2A R/B 2.2 00:46:17 10° NNE 00:50:11 89° WNW 00:52:42 21° SSW
Cosmos 1766 Rocket 3.6 00:48:43 21° S 00:51:44 82° E 00:56:16 10° NNE
Cosmos 1697 Rocket 2.9 00:47:54 10° NNW 00:53:37 72° NE 00:59:17 10° SE
Cosmos 1328 Rocket 3.5 00:50:14 10° NNW 00:54:39 87° WSW 00:57:33 21° S
Cosmos 1500 Rocket 4.5 00:52:07 18° SSE 00:54:51 37° E 00:58:51 10° NNE
Cosmos 2221 3.7 00:51:52 10° NNW 00:55:46 33° W 00:58:36 16° SSW
Landsat 5 3.9 00:54:06 21° SSW 00:56:28 47° W 01:00:26 10° NNW
Cosmos 1655 Rocket 4.2 00:52:21 16° SSW 00:57:33 74° WNW 01:03:51 10° N
USA 238 DEB 3.8 00:50:44 10° SW 00:57:51 87° SE 01:04:57 10° NE
USA 238 3.8 00:50:50 10° SW 00:57:57 87° SE 01:05:03 10° NE
Cosmos 2082 Rocket 3.4 00:56:17 16° SSE 00:59:44 28° ESE 01:04:30 10° NE
Lacrosse 4 Rocket 3.3 00:56:46 10° W 01:00:23 30° NNW 01:04:07 10° NNE
CZ-4C R/B 2.7 00:57:08 19° S 01:00:56 46° SE 01:06:52 10° NE
Cosmos 1076 Rocket 3.5 00:59:45 20° SSW 01:02:39 75° WNW 01:06:56 10° N
Cosmos 1428 Rocket 4.5 00:59:12 18° S 01:03:58 89° E 01:10:14 10° NNE
Cosmos 1689 Rocket 3.6 01:03:11 20° SW 01:04:43 29° W 01:07:37 10° NNW
Cosmos 1515 Rocket 3.6 01:02:34 10° NNW 01:07:02 84° W 01:10:03 21° S
Cosmos 1833 Rocket 4.0 01:05:17 15° SSE 01:08:49 26° ESE 01:13:24 10° NE
Cosmos 841 Rocket 3.6 01:04:29 10° NNW 01:09:44 68° WSW 01:13:36 18° SSE
Cosmos 1726 4.4 01:07:32 10° NNE 01:10:21 20° ENE 01:13:08 10° ESE
Cosmos 2228 Rocket 3.5 01:06:10 10° NNW 01:10:28 51° W 01:13:15 20° SSW
CZ-2C R/B 3.4 01:11:20 15° SSE 01:16:05 75° ENE 01:21:53 10° NNW
SS 1 4.5 01:14:03 10° NW 01:16:51 61° SW 01:18:39 21° SSE
MOS 1-B Rocket 4.4 01:10:43 15° SSE 01:17:07 85° WSW 01:23:35 10° NNW
Meteor 1-24 Rocket 4.1 01:13:16 16° SSW 01:18:12 67° WNW 01:24:05 10° N
Cosmos 1674 3.9 01:16:19 17° SSE 01:18:39 32° E 01:22:03 10° NNE
Cosmos 1378 3.4 01:19:50 20° SSW 01:22:17 62° WNW 01:26:05 10° N
Cosmos 1656 3.8 01:19:30 10° NW 01:25:10 64° WSW 01:29:39 16° SSE
Aureole 1 Rocket 3.2 01:23:44 10° NNW 01:27:52 88° ENE 01:32:51 12° SSE
CENTAUR R/B 4.0 01:24:49 13° SSE 01:28:49 23° ESE 01:33:59 10° ENE
Elektron 3 4.4 01:24:21 10° WSW 01:29:26 75° NNW 01:32:28 10° NE
NOSS 3-2 (C) 3.7 01:26:47 15° SSW 01:31:59 64° SE 01:38:50 10° NE
PSLV R/B 3.9 01:29:09 19° SSE 01:32:06 82° WSW 01:36:19 10° NNW
Cosmos 1607 4.1 01:26:23 10° SW 01:32:39 74° NW 01:38:51 10° NE
COSMOS 2487 4.2 01:29:51 10° WSW 01:33:04 29° NW 01:36:18 10° N
SL-16 R/B 3.2 01:29:11 10° NNW 01:34:41 47° NE 01:40:09 10° ESE
CZ-2C R/B 2.8 01:29:23 10° NNE 01:35:01 74° ESE 01:39:10 18° S
ISS -3.1 01:33:05 10° W 01:36:13 43° S 01:39:21 10° ESE
ASTEX 1 4.0 01:34:25 10° NNE 01:39:18 50° E 01:43:15 15° SSE
ALOS 2 4.5 01:38:26 12° SW 01:41:07 19° W 01:44:15 10° NW
Cosmos 405 3.1 01:38:24 10° NNW 01:42:01 76° ENE 01:44:35 18° SSE
Cosmos 2322 Rocket 2.9 01:41:32 10° NNW 01:47:08 56° NE 01:52:39 10° SE
Genesis I 4.4 01:43:48 10° WNW 01:47:10 26° WSW 01:48:42 20° SSW
ATLAS CENTAUR R/B 3.7 01:46:36 10° NW 01:51:08 33° NNE 01:55:26 10° E
Cosmos 1707 Rocket 3.7 01:48:14 10° N 01:52:38 73° ENE 01:56:20 14° SSE
Meteor 1-21 Rocket 4.3 01:49:14 17° SSW 01:53:43 80° WNW 01:59:24 10° NNE
SL-23 DEB 3.6 01:50:45 10° WSW 01:54:04 44° S 01:57:06 10° ESE
In-Cosmos 22 4.3 01:49:51 17° SSW 01:54:14 73° WNW 01:59:58 10° NNE
Cosmos 332 Rocket 3.8 01:49:37 10° NNW 01:54:28 90° ENE 01:59:15 10° SSE
Helios 1A Rocket 4.0 01:54:57 10° N 01:58:41 36° WNW 02:02:00 12° SW
Cosmos 1486 Rocket 4.2 01:54:39 14° SW 01:59:04 67° WNW 02:04:18 10° NNE
Cosmos 1908 4.0 01:58:35 10° NNW 02:02:11 38° W 02:04:30 19° SSW
Cosmos 405 Rocket 4.1 01:59:16 12° SW 02:02:14 29° WNW 02:05:36 10° N
Lacrosse 5 rocket 1.4 01:58:49 10° WNW 02:03:01 61° SSW 02:07:25 10° SE
Cosmos 1151 Rocket 3.7 02:00:10 10° NNW 02:04:12 41° W 02:07:00 18° SSW
Cosmos 2058 3.5 02:03:23 16° SSE 02:06:36 52° E 02:10:40 10° NNE
ATLAS 3B R/B 4.0 02:04:42 10° W 02:11:57 46° NNW 02:18:52 10° ENE
SL-08 R/B 4.0 02:07:53 10° SE 02:12:38 56° ENE 02:17:28 10° N
Cosmos 2151 3.0 02:11:09 18° SSW 02:14:19 86° W 02:18:36 10° NNE
ERS-2 3.9 02:11:25 10° NE 02:14:34 25° E 02:17:42 10° SSE
Cosmos 540 Rocket 3.8 02:10:41 10° NW 02:15:42 51° WSW 02:19:57 14° S
NOSS 3-2 (A) 3.8 02:10:03 10° SW 02:16:26 79° NW 02:23:32 10° NE
Cosmos 1300 2.7 02:12:59 10° NNW 02:16:51 76° W 02:19:53 16° S
Cosmos 1980 Rocket 2.4 02:11:34 10° NW 02:17:02 53° WSW 02:22:16 11° S
Cosmos 1437 Rocket 3.7 02:13:51 10° NNW 02:17:27 34° W 02:19:52 17° SSW
Cosmos 2360 Rocket 3.5 02:12:16 10° NNW 02:17:38 43° NE 02:22:59 10° ESE
Cosmos 1441 Rocket 3.6 02:23:26 16° SSW 02:26:24 56° WNW 02:30:18 10° N
Meteor 1-4 Rocket 3.4 02:24:40 10° N 02:28:21 51° ENE 02:32:04 10° SSE
Lacrosse 5 2.8 02:24:47 10° WNW 02:28:58 26° SW 02:33:04 10° S
USA 161 3.7 02:27:40 10° ESE 02:29:27 19° ENE 02:31:16 10° NNE
COS B Rocket 2.4 02:27:39 10° N 02:29:57 45° W 02:31:06 23° SSW
Sich 1 3.3 02:30:31 13° S 02:34:22 66° E 02:38:48 10° NNE
USA 215 4.3 02:29:57 10° ENE 02:35:32 29° SE 02:40:39 12° S
SL-16 R/B 3.8 02:30:24 10° SE 02:36:15 43° ENE 02:42:08 10° N
Cosmos 1697 Rocket 3.8 02:32:26 10° NW 02:37:09 28° WSW 02:41:01 14° SSW
Cosmos 1437 2.9 02:35:31 16° S 02:38:07 72° ESE 02:41:28 10° NNE
Nadezhda 1 Rocket 4.0 02:32:16 10° NNW 02:38:31 79° W 02:44:37 10° S
Meteor 2-10 4.1 02:33:46 10° NNW 02:38:58 81° ENE 02:44:20 10° SSE
Cosmos 1745 Rocket 4.2 02:33:26 12° S 02:39:26 78° E 02:45:47 10° NNE
Lacrosse 4 Rocket 4.3 02:37:55 10° NW 02:40:24 15° N 02:42:55 10° NNE
Cosmos 1867 3.7 02:35:08 10° SW 02:40:35 79° NW 02:46:08 10° NE
Abrixas 4.1 02:40:51 17° S 02:41:49 19° SSE 02:44:07 10° ESE
BREEZE-M DEB (TANK) 4.2 02:40:17 10° WSW 02:42:57 26° S 02:49:08 10° SE
Cosmos 2082 Rocket 2.4 02:38:07 12° SW 02:43:24 71° NW 02:49:07 10° NNE
Cosmos 1455 2.7 02:40:21 10° N 02:44:09 58° ENE 02:47:53 10° SSE
Cosmos 2344 3.9 02:37:24 10° SW 02:45:18 85° SE 02:55:10 10° NE
Cosmos 1862 Rocket 3.8 02:41:16 10° N 02:45:48 72° ENE 02:50:15 10° SSE
Cosmos 371 Rocket 3.5 02:41:10 10° NW 02:45:55 53° WSW 02:50:37 10° S
Cosmos 1726 2.5 02:42:25 10° NNW 02:46:01 48° W 02:49:01 14° SSW
PSLV R/B 3.7 02:42:55 10° NNE 02:47:38 89° E 02:51:42 13° SSW
CZ-4C R/B 2.9 02:43:40 10° WSW 02:49:22 63° NNW 02:55:54 10° NE
Cosmos 1833 Rocket 2.8 02:46:58 12° SW 02:52:15 75° NW 02:57:56 10° NNE
Cosmos 1674 4.0 02:51:17 11° SW 02:54:21 28° WNW 02:57:40 10° N
JB-3 4.4 02:52:53 10° NNE 02:56:58 90° ESE 03:00:38 12° SSW
Cosmos 304 Rocket 4.0 02:55:02 10° NNW 02:59:54 76° ENE 03:04:45 10° SSE
ATLAS 5 CENTAUR R/B 4.1 02:57:52 10° SE 03:00:37 15° ESE 03:03:29 10° ENE
COSMOS 2428 3.9 02:57:58 10° NNW 03:03:29 47° NE 03:08:57 10° ESE
Cosmos 968 Rocket 3.8 02:59:21 10° S 03:04:17 60° ESE 03:09:24 10° NNE
GENESIS II 4.3 03:01:38 10° NW 03:05:49 82° SW 03:09:56 10° SE
Cosmos 1869 3.3 03:06:15 10° NNW 03:10:15 89° WSW 03:14:14 10° S
AQUA 4.1 03:05:50 10° NNE 03:10:37 68° ESE 03:15:22 10° S
USA 129 4.2 03:10:58 10° E 03:11:39 12° ENE 03:12:22 10° NE
Resurs 1-4 Rocket 3.9 03:07:23 10° NNE 03:11:55 27° E 03:16:25 10° SSE
IRS-P3 4.2 03:06:36 10° NNE 03:11:59 90° E 03:17:20 10° SSW
ISS -2.1 03:09:35 10° W 03:12:13 23° SSW 03:14:51 10° SSE
SL-14 R/B 3.5 03:10:06 12° SSW 03:13:37 55° WNW 03:17:27 10° N
Cosmos 1626 2.9 03:10:06 10° S 03:13:43 49° E 03:17:23 10° NNE
CZ-2C R/B 4.2 03:10:14 10° N 03:14:51 27° NW 03:19:24 10° WSW
CENTAUR R/B 2.8 03:12:01 10° SW 03:18:23 77° SE 03:25:39 10° NE
SL-16 R/B 2.5 03:13:27 10° NW 03:18:52 47° WSW 03:24:15 10° S
Cosmos 923 Rocket 4.2 03:17:11 10° NNW 03:22:22 56° WSW 03:27:29 10° S
Cosmos 2237 Rocket 4.4 03:17:54 10° NNW 03:22:58 32° NE 03:28:02 10° E
NOSS 3-2 (C) 4.3 03:16:47 10° WSW 03:23:10 56° NNW 03:30:15 10° NE
Cosmos 1703 3.4 03:22:03 10° SSW 03:25:59 67° WNW 03:29:58 10° N
Cosmos 1271 Rocket 3.3 03:24:58 10° NNW 03:28:33 39° W 03:32:05 10° SSW
ATLAS CENTAUR R/B 1.8 03:25:57 10° NW 03:30:54 83° NE 03:35:27 10° SE
Cosmos 2322 Rocket 2.8 03:25:53 10° NW 03:31:01 37° WSW 03:36:06 10° S
Cosmos 1680 Rocket 3.6 03:26:32 10° NNW 03:31:41 60° WSW 03:36:47 10° S
Cosmos 1633 Rocket 3.8 03:27:42 10° SW 03:31:55 42° WNW 03:36:10 10° N
UNK 4.0 03:29:52 10° SSE 03:34:26 77° ENE 03:39:03 10° NNW
Cosmos 2181 Rocket 4.1 03:31:50 10° NNW 03:37:55 64° W 03:44:01 10° S
Cosmos 1933 3.3 03:35:28 10° NNW 03:39:31 83° W 03:43:33 10° S
Cosmos 2219 Rocket 3.5 03:34:49 10° NNW 03:40:13 46° NE 03:45:36 10° ESE
CBERS-1 4.1 03:35:31 10° NNE 03:40:39 75° WNW 03:45:46 10° SSW
Cosmos 1703 Rocket 3.5 03:36:28 10° NNW 03:40:53 82° WSW 03:45:13 10° S
Cosmos 1777 Rocket 4.2 03:35:45 10° SSW 03:41:02 75° ESE 03:46:20 10° NNE
EO 1 Del DPAF 3.3 03:37:11 10° S 03:41:06 72° WSW 03:45:02 10° NNW
Lacrosse 5 rocket 2.9 03:38:41 10° W 03:41:44 19° SW 03:44:52 10° S
